CW5316 Weather Reports


Display with metric or nautical units.
time (UTC)temp
F
wind
direction
speed
MPH
gust
MPH
rain 1hr
in
rain 24hr
in
rain mn
in
humidity
%
barometer
mb
20260505153039 51 140 1.0 4.0 0.00 0.00 0.00 88 1016.0
20260505152518 52 119 0.0 4.0 0.00 0.00 0.00 88 1016.0
20260505152017 52 171 1.0 6.0 0.00 0.00 0.00 88 1016.1
20260505151535 52 0 0.0 6.0 0.00 0.00 0.00 88 1015.9
20260505151018 52 107 1.0 6.0 0.00 0.00 0.00 88 1015.8
20260505150525 51 115 1.0 4.0 0.00 0.00 0.00 89 1015.8
20260505140519 51 103 0.0 3.0 0.00 0.00 0.00 91 1015.0
20260505125022 50 0 2.0 7.0 0.00 0.00 0.00 92 1014.4
20260505124537 50 124 2.0 6.0 0.00 0.00 0.00 92 1014.4
20260505124021 50 107 2.0 6.0 0.00 0.00 0.00 92 1014.4
20260505123524 50 110 2.0 6.0 0.00 0.00 0.00 92 1014.4
20260505123037 50 119 1.0 7.0 0.00 0.00 0.00 92 1014.4
20260505122520 50 132 2.0 7.0 0.00 0.00 0.00 92 1014.4
20260505122019 50 113 2.0 7.0 0.00 0.00 0.00 92 1014.3
20260505121542 51 98 2.0 7.0 0.00 0.00 0.00 92 1014.2
20260505121019 51 187 2.0 7.0 0.00 0.00 0.00 92 1014.2
20260505120522 51 99 2.0 7.0 0.00 0.00 0.00 92 1014.3
20260505120046 51 119 2.0 7.0 0.00 0.00 0.00 91 1014.2
20260505115521 51 102 1.0 6.0 0.00 0.00 0.00 91 1014.1
20260505115023 51 105 2.0 6.0 0.00 0.00 0.00 91 1014.1
20260505114545 51 114 1.0 5.0 0.00 0.00 0.00 91 1014.1
20260505114021 51 101 1.0 6.0 0.00 0.00 0.00 91 1014.0
20260505113519 51 186 1.0 6.0 0.00 0.00 0.00 91 1014.1
20260505113035 51 114 2.0 6.0 0.00 0.00 0.00 91 1014.1
20260505112519 51 117 2.0 6.0 0.00 0.00 0.00 91 1014.1
20260505112019 51 127 2.0 6.0 0.00 0.00 0.00 91 1014.0
20260505111539 51 137 0.0 6.0 0.00 0.00 0.00 91 1014.0
20260505111019 51 0 2.0 7.0 0.00 0.00 0.00 91 1013.8
20260505110518 51 96 1.0 7.0 0.00 0.00 0.00 91 1013.9
20260505102019 51 96 0.0 5.0 0.00 0.00 0.00 90 1013.5
20260505101549 51 207 1.0 6.0 0.00 0.00 0.00 90 1013.5
20260505101019 51 0 0.0 6.0 0.00 0.00 0.00 90 1013.5
20260505100520 51 196 1.0 6.0 0.00 0.00 0.00 90 1013.5
20260505100040 51 121 1.0 4.0 0.00 0.00 0.00 90 1013.4
20260505095519 51 120 1.0 6.0 0.00 0.00 0.00 90 1013.4
20260505095018 51 268 0.0 6.0 0.00 0.00 0.00 90 1013.3
20260505094541 51 150 1.0 6.0 0.00 0.00 0.00 90 1013.4
20260505094020 51 0 0.0 6.0 0.00 0.00 0.00 90 1013.2
20260505093519 51 109 1.0 6.0 0.00 0.00 0.00 90 1013.2
20260505093035 52 109 1.0 6.0 0.00 0.00 0.00 89 1013.2
20260505092522 52 132 1.0 6.0 0.00 0.00 0.00 89 1013.2
20260505092019 52 0 1.0 7.0 0.00 0.00 0.00 89 1013.2
20260505091547 52 0 2.0 7.0 0.00 0.00 0.00 88 1013.1
20260505091020 52 92 1.0 4.0 0.00 0.00 0.00 88 1013.1
20260505090520 52 0 2.0 4.0 0.00 0.00 0.00 88 1013.1
20260505090041 53 123 1.0 4.0 0.00 0.00 0.00 88 1013.1
20260505085524 53 0 0.0 7.0 0.00 0.00 0.00 88 1013.2
20260505085023 53 67 1.0 7.0 0.00 0.00 0.00 87 1013.2
20260505084538 53 123 2.0 7.0 0.00 0.00 0.00 87 1013.1
20260505084020 53 96 2.0 9.0 0.00 0.00 0.00 87 1013.2
20260505083520 53 98 2.0 9.0 0.00 0.00 0.00 86 1013.1
20260505083035 54 94 2.0 7.0 0.00 0.00 0.00 86 1013.0
20260505082521 54 119 3.0 7.0 0.00 0.00 0.00 85 1013.0
20260505082021 54 113 2.0 7.0 0.00 0.00 0.00 85 1012.9
20260505081539 54 164 1.0 6.0 0.00 0.00 0.00 85 1012.9
20260505081024 54 129 2.0 7.0 0.00 0.00 0.00 85 1012.9
20260505080519 55 108 1.0 7.0 0.00 0.00 0.00 84 1013.0
20260505080039 55 119 2.0 7.0 0.00 0.00 0.00 84 1012.9
20260505075520 55 105 2.0 7.0 0.00 0.00 0.00 84 1012.8
20260505075022 55 113 2.0 7.0 0.00 0.00 0.00 84 1012.7
20260505074535 55 103 2.0 7.0 0.00 0.00 0.00 83 1012.6
20260505074020 55 109 2.0 7.0 0.00 0.00 0.00 83 1012.6
20260505073523 55 117 2.0 6.0 0.00 0.00 0.00 82 1012.5
20260505073037 56 109 2.0 6.0 0.00 0.00 0.00 82 1012.5
20260505072520 56 144 1.0 6.0 0.00 0.00 0.00 82 1012.4
20260505072020 56 115 2.0 6.0 0.00 0.00 0.00 81 1012.4
20260505071553 56 0 3.0 6.0 0.00 0.00 0.00 81 1012.3
20260505071021 56 101 2.0 6.0 0.00 0.00 0.00 81 1012.1
20260505070524 57 107 1.0 7.0 0.00 0.00 0.00 80 1012.3
20260505070041 57 101 2.0 7.0 0.00 0.00 0.00 80 1012.1
20260505065520 57 0 0.0 1.0 0.00 0.00 0.00 79 1012.0
20260505065019 57 0 0.0 1.0 0.00 0.00 0.00 79 1012.1
20260505064541 57 0 0.0 4.0 0.00 0.00 0.00 79 1012.0
20260505064022 58 0 0.0 7.0 0.00 0.00 0.00 78 1011.9
20260505063520 58 131 2.0 7.0 0.00 0.00 0.00 78 1011.9
20260505063044 58 100 2.0 7.0 0.00 0.00 0.00 78 1011.9
20260505062523 58 143 1.0 7.0 0.00 0.00 0.00 78 1011.9
20260505062023 58 159 1.0 4.0 0.00 0.00 0.00 78 1011.8
20260505061544 58 108 1.0 3.0 0.00 0.00 0.00 78 1011.8
20260505061025 58 0 0.0 2.0 0.00 0.00 0.00 77 1011.8
20260505060524 59 0 0.0 2.0 0.00 0.00 0.00 77 1011.9
20260505060047 59 0 0.0 4.0 0.00 0.00 0.00 76 1011.9
20260505055525 60 0 1.0 6.0 0.00 0.00 0.00 75 1011.8
20260505055022 60 107 2.0 6.0 0.00 0.00 0.00 74 1011.8
20260505054539 60 105 2.0 6.0 0.00 0.00 0.00 74 1011.8
20260505054023 61 0 0.0 2.0 0.00 0.00 0.00 73 1011.8
20260505053523 60 0 0.0 2.0 0.00 0.00 0.00 74 1011.9
20260505053038 61 163 0.0 3.0 0.00 0.00 0.00 73 1011.9
20260505052522 61 0 0.0 3.0 0.00 0.00 0.00 73 1011.8
20260505052023 61 183 0.0 2.0 0.00 0.00 0.00 72 1011.6
20260505051557 61 0 0.0 3.0 0.00 0.00 0.00 72 1011.7
20260505051023 61 153 1.0 4.0 0.00 0.00 0.00 72 1011.6
20260505050525 62 144 1.0 4.0 0.00 0.00 0.00 69 1011.5
20260505041535 62 98 2.0 6.0 0.00 0.00 0.00 68 1010.7
20260505041022 62 134 1.0 3.0 0.00 0.00 0.00 68 1010.7
20260505040522 62 118 1.0 3.0 0.00 0.00 0.00 69 1010.6
20260505040047 62 168 0.0 4.0 0.00 0.00 0.00 68 1010.5
20260505035526 63 0 0.0 4.0 0.00 0.00 0.00 65 1010.5
20260505035022 63 125 2.0 4.0 0.00 0.00 0.00 62 1010.4
20260505034540 62 117 1.0 4.0 0.00 0.00 0.00 65 1010.5
20260505034029 62 113 0.0 3.0 0.00 0.00 0.00 66 1010.3
20260505033522 62 112 1.0 3.0 0.00 0.00 0.00 68 1010.2
20260505033040 63 0 0.0 3.0 0.00 0.00 0.00 66 1010.1
20260505032522 64 113 0.0 3.0 0.00 0.00 0.00 64 1010.2
20260505032023 64 136 0.0 2.0 0.00 0.00 0.00 65 1010.1
20260505031541 63 115 0.0 1.0 0.00 0.00 0.00 64 1010.1
20260505031022 64 0 0.0 0.0 0.00 0.00 0.00 62 1010.1
20260505030521 63 0 0.0 0.0 0.00 0.00 0.00 61 1010.1
20260505030035 64 0 0.0 1.0 0.00 0.00 0.00 62 1010.1
20260505025523 64 0 0.0 1.0 0.00 0.00 0.00 61 1010.1
20260505025022 65 0 0.0 1.0 0.00 0.00 0.00 59 1010.0
20260505024540 65 0 0.0 1.0 0.00 0.00 0.00 61 1010.0
20260505024022 66 0 0.0 0.0 0.00 0.00 0.00 61 1010.1
20260505023522 66 0 0.0 0.0 0.00 0.00 0.00 60 1010.1
20260505023039 66 0 0.0 0.0 0.00 0.00 0.00 58 1010.1
20260505022522 66 0 0.0 0.0 0.00 0.00 0.00 58 1010.1
20260505022027 66 0 0.0 1.0 0.00 0.00 0.00 59 1010.0
20260505021539 67 0 0.0 1.0 0.00 0.00 0.00 58 1009.9
20260505021021 67 0 0.0 1.0 0.00 0.00 0.00 59 1009.9
20260505020523 67 0 0.0 1.0 0.00 0.00 0.00 58 1010.0
20260505020035 67 0 0.0 2.0 0.00 0.00 0.00 57 1010.0
20260505015521 68 0 0.0 2.0 0.00 0.00 0.00 56 1010.0
20260505015026 68 255 0.0 2.0 0.00 0.00 0.00 54 1010.0
20260505014535 69 255 0.0 2.0 0.00 0.00 0.00 53 1009.9
20260505014029 69 0 1.0 2.0 0.00 0.00 0.00 53 1010.0
20260505013522 70 230 0.0 2.0 0.00 0.00 0.00 52 1010.0
20260505013058 70 231 0.0 3.0 0.00 0.00 0.00 50 1010.0
20260505012522 71 246 0.0 3.0 0.00 0.00 0.00 49 1010.0
20260505012022 72 233 0.0 3.0 0.00 0.00 0.00 48 1010.0
20260505011539 73 0 0.0 2.0 0.00 0.00 0.00 45 1010.1
20260505011022 73 232 0.0 3.0 0.00 0.00 0.00 46 1010.1
20260505010521 73 0 1.0 3.0 0.00 0.00 0.00 45 1010.2
20260505010038 74 198 0.0 2.0 0.00 0.00 0.00 44 1010.2
20260505005524 74 237 0.0 2.0 0.00 0.00 0.00 43 1010.2
20260505005023 74 227 0.0 2.0 0.00 0.00 0.00 43 1010.2
20260505004535 75 0 0.0 3.0 0.00 0.00 0.00 41 1010.2
20260505004023 75 265 1.0 3.0 0.00 0.00 0.00 40 1010.2
20260505003522 75 0 0.0 2.0 0.00 0.00 0.00 42 1010.2
20260505003035 75 0 0.0 2.0 0.00 0.00 0.00 41 1010.2
20260505002522 75 0 0.0 4.0 0.00 0.00 0.00 40 1010.2
20260505002024 75 0 0.0 4.0 0.00 0.00 0.00 41 1010.2
20260505001540 75 272 0.0 4.0 0.00 0.00 0.00 40 1010.1
20260505001021 76 261 1.0 4.0 0.00 0.00 0.00 39 1010.1
20260505000521 76 111 0.0 3.0 0.00 0.00 0.00 38 1010.1
20260505000051 76 278 0.0 3.0 0.00 0.00 0.00 40 1010.1
20260504235522 76 287 1.0 6.0 0.00 0.00 0.00 38 1010.1
20260504235022 76 5 0.0 6.0 0.00 0.00 0.00 36 1010.2
20260504234538 76 71 0.0 6.0 0.00 0.00 0.00 37 1010.1
20260504234024 76 36 0.0 3.0 0.00 0.00 0.00 36 1010.1
20260504233523 77 303 0.0 3.0 0.00 0.00 0.00 35 1010.1
20260504233038 77 0 0.0 3.0 0.00 0.00 0.00 36 1010.0
20260504232525 77 13 0.0 9.0 0.00 0.00 0.00 36 1010.1
20260504232022 77 296 0.0 9.0 0.00 0.00 0.00 35 1010.0
20260504231535 77 63 1.0 9.0 0.00 0.00 0.00 35 1010.1
20260504231022 77 0 1.0 9.0 0.00 0.00 0.00 37 1010.1
20260504230522 77 92 1.0 9.0 0.00 0.00 0.00 34 1010.1
20260504230040 77 0 1.0 9.0 0.00 0.00 0.00 35 1010.2
20260504225518 78 284 0.0 7.0 0.00 0.00 0.00 35 1010.2
20260504225021 78 286 2.0 7.0 0.00 0.00 0.00 36 1010.3
20260504224538 79 309 1.0 10.0 0.00 0.00 0.00 39 1010.4
20260504224021 79 24 0.0 10.0 0.00 0.00 0.00 39 1010.4
20260504223522 78 100 1.0 10.0 0.00 0.00 0.00 36 1010.4
20260504223044 78 315 1.0 7.0 0.00 0.00 0.00 39 1010.5
20260504222525 79 253 1.0 6.0 0.00 0.00 0.00 38 1010.4
20260504222022 77 260 1.0 7.0 0.00 0.00 0.00 39 1010.5
20260504221535 78 24 2.0 7.0 0.00 0.00 0.00 38 1010.5
20260504221022 79 233 2.0 7.0 0.00 0.00 0.00 37 1010.5
20260504220522 77 113 1.0 7.0 0.00 0.00 0.00 38 1010.6
20260504220041 79 271 1.0 7.0 0.00 0.00 0.00 37 1010.6
20260504215521 78 0 1.0 7.0 0.00 0.00 0.00 38 1010.7
20260504215024 77 55 1.0 6.0 0.00 0.00 0.00 36 1010.7
20260504214545 78 284 2.0 6.0 0.00 0.00 0.00 38 1010.6
20260504214023 79 0 1.0 6.0 0.00 0.00 0.00 36 1010.6
20260504213524 78 0 0.0 6.0 0.00 0.00 0.00 40 1010.6
20260504213042 77 94 2.0 9.0 0.00 0.00 0.00 37 1010.6
20260504212520 76 111 1.0 9.0 0.00 0.00 0.00 38 1010.6
20260504212026 77 103 2.0 9.0 0.00 0.00 0.00 38 1010.7
20260504211539 78 0 1.0 4.0 0.00 0.00 0.00 38 1010.6
20260504211023 77 93 1.0 7.0 0.00 0.00 0.00 38 1010.7
20260504210523 76 0 1.0 7.0 0.00 0.00 0.00 40 1010.7
20260504210040 76 98 1.0 6.0 0.00 0.00 0.00 39 1010.8
20260504205523 76 66 0.0 6.0 0.00 0.00 0.00 39 1010.8
20260504205024 77 0 1.0 7.0 0.00 0.00 0.00 40 1010.9
20260504204543 77 84 1.0 7.0 0.00 0.00 0.00 41 1010.9
20260504204020 76 111 1.0 5.0 0.00 0.00 0.00 40 1010.9
20260504203521 77 299 1.0 8.0 0.00 0.00 0.00 41 1010.8
20260504203042 76 350 2.0 8.0 0.00 0.00 0.00 39 1010.9
20260504202520 76 25 3.0 8.0 0.00 0.00 0.00 39 1010.8
20260504202019 76 167 0.0 6.0 0.00 0.00 0.00 40 1010.8
20260504201548 75 117 0.0 5.0 0.00 0.00 0.00 41 1010.8
20260504201022 75 226 1.0 8.0 0.00 0.00 0.00 43 1010.9
20260504200520 74 89 2.0 8.0 0.00 0.00 0.00 42 1011.0
20260504200038 75 85 2.0 8.0 0.00 0.00 0.00 41 1011.0
20260504195522 75 231 0.0 7.0 0.00 0.00 0.00 43 1011.1
20260504195022 75 275 2.0 7.0 0.00 0.00 0.00 42 1011.0
20260504194535 75 238 1.0 6.0 0.00 0.00 0.00 41 1011.0
20260504194022 75 0 0.0 6.0 0.00 0.00 0.00 41 1011.1
20260504193522 74 71 1.0 6.0 0.00 0.00 0.00 41 1011.0
20260504193043 74 134 2.0 6.0 0.00 0.00 0.00 40 1011.2
20260504192522 73 275 2.0 8.0 0.00 0.00 0.00 41 1011.3
20260504192025 73 213 1.0 8.0 0.00 0.00 0.00 42 1011.3
20260504191551 73 104 2.0 8.0 0.00 0.00 0.00 41 1011.3
20260504191022 72 111 2.0 8.0 0.00 0.00 0.00 41 1011.3
20260504190522 72 161 1.0 6.0 0.00 0.00 0.00 40 1011.4
20260504190043 73 88 1.0 5.0 0.00 0.00 0.00 41 1011.4
20260504185519 73 113 1.0 4.0 0.00 0.00 0.00 41 1011.4
20260504185019 72 59 1.0 4.0 0.00 0.00 0.00 43 1011.4
20260504184552 73 101 0.0 4.0 0.00 0.00 0.00 44 1011.5
20260504184023 72 0 0.0 4.0 0.00 0.00 0.00 46 1011.4
20260504183520 71 0 0.0 4.0 0.00 0.00 0.00 45 1011.5
20260504183034 72 0 0.0 3.0 0.00 0.00 0.00 43 1011.5
20260504182522 71 0 0.0 4.0 0.00 0.00 0.00 43 1011.5
20260504182022 71 231 1.0 4.0 0.00 0.00 0.00 47 1011.6
20260504181547 71 49 2.0 4.0 0.00 0.00 0.00 46 1011.6
20260504181022 72 0 0.0 3.0 0.00 0.00 0.00 50 1011.6
20260504180522 71 0 1.0 4.0 0.00 0.00 0.00 48 1011.6
20260504180044 71 217 1.0 4.0 0.00 0.00 0.00 47 1011.5
20260504175522 70 192 0.0 3.0 0.00 0.00 0.00 49 1011.5
20260504175022 70 230 1.0 3.0 0.00 0.00 0.00 49 1011.5
20260504174541 70 0 0.0 3.0 0.00 0.00 0.00 50 1011.5
20260504174022 69 0 0.0 3.0 0.00 0.00 0.00 48 1011.5
20260504173520 69 0 0.0 3.0 0.00 0.00 0.00 52 1011.4
20260504173038 69 74 0.0 3.0 0.00 0.00 0.00 48 1011.4
20260504172519 69 236 0.0 3.0 0.00 0.00 0.00 47 1011.4
20260504172023 69 0 0.0 4.0 0.00 0.00 0.00 49 1011.4
20260504171544 68 278 1.0 7.0 0.00 0.00 0.00 48 1011.5
20260504171026 68 0 1.0 7.0 0.00 0.00 0.00 48 1011.5
20260504170528 68 0 1.0 3.0 0.00 0.00 0.00 47 1011.4